Preview of NWS' New Version of Forecast
This preview is not operational and should not be used for support decisions.
Latest weather observations around

El Dorado Captain Jack Thomas Airport (KEQA)

Using English Units (Switch to International System of Units)
Date/ Time (CST) Wind (mph) Vis. (mi) Weather Sky Cond. Temp (°F) Rel. Humidity Wind Chill (°F) Heat Index (°F) Pressure Precip. (in)
Air Dwpt 6 hour Altimeter (inHg) Sea level (inHg) 1 hr 3 hr 6 hr
Max Min
Jan 16 12:35 E 7 4 Fog/Mist OVC004 37 36     93% 32   30.08        
Jan 16 12:15 E 8 5 Fog/Mist OVC006 37 36     93% 31   30.09        
Jan 16 11:55 E 8 4 Fog/Mist OVC004 37 36     93% 31   30.11        
Jan 16 11:35 E 7 5 Fog/Mist OVC004 37 36     93% 32   30.12        
Jan 16 11:15 E 7 5 Fog/Mist BKN004 OVC007 37 36     93% 32   30.13        
Jan 16 10:55 E 7 5 Fog/Mist OVC007 37 36     93% 32   30.14        
Jan 16 10:35 E 7 4 Fog/Mist SCT004 OVC009 37 36     93% 32   30.13        
Jan 16 10:15 E 7 4 Fog/Mist OVC007 37 37     100% 32   30.14        
Jan 16 09:55 E 6 3 Fog/Mist BKN006 OVC011 37 37     100% 33   30.13        
Jan 16 09:35 E 5 3 Fog/Mist SCT006 OVC011 39 37     93% 36   30.13        
Jan 16 09:15 ESE 5 3 Fog/Mist BKN006 OVC011 39 37     93% 36   30.12        
Jan 16 08:55 SE 5 2.5 Fog/Mist SCT006 OVC011 37 37     100% 34   30.13        
Jan 16 08:35 ESE 7 2 Fog/Mist SCT006 OVC011 37 36     93% 32   30.11        
Jan 16 08:15 E 6 2 Fog/Mist BKN004 OVC011 36 36     100% 31   30.12        
Jan 16 07:55 E 5 2 Fog/Mist OVC004 36 36     100% 32   30.13        
Jan 16 07:35 E 6 2.5 Fog/Mist OVC002 36 34     93% 31   30.13        
Jan 16 07:15 ENE 3 1.75 Fog/Mist OVC002 34 34     100% 31   30.15        
Jan 16 06:55 Calm 1.25 Fog/Mist OVC002 34 34     100%     30.15        
Jan 16 06:35 Calm 0.75 Fog/Mist OVC002 34 34     100%     30.13        
Jan 16 06:15 ENE 3 0.5 Fog OVC002 34 34     100% 31   30.13        
Jan 16 05:55 NE 3 0.25 Fog OVC002 34 32     93% 31   30.12        
Jan 16 05:35 SSE 3 0.25 Fog OVC002 34 32     93% 31   30.13        
Jan 16 05:15 S 5 0.25 Fog OVC002 34 34     100% 29   30.12        
Jan 16 04:55 S 5 0.25 Fog OVC005 34 34     100% 29   30.12        
Jan 16 04:35 S 5 0.5 Fog BKN007 OVC012 36 34     93% 32   30.11        
Jan 16 04:15 S 6 0.75 Fog/Mist BKN005 BKN009 34 34     100% 29   30.12        
Jan 16 03:55 S 6 0.5 Fog OVC005 36 34     93% 31   30.12        
Jan 16 03:35 S 7 0.5 Fog BKN005 34 34     100% 28   30.13        
Jan 16 03:15 S 6 0.75 Fog/Mist BKN005 34 34     100% 29   30.12        
Jan 16 02:55 SSE 7 0.5 Fog OVC005 34 34     100% 28   30.12        
Jan 16 02:35 SSE 7 0.5 Fog OVC005 34 34     100% 28   30.13        
Jan 16 02:15 SSE 5 0.5 Fog BKN005 36 36     100% 32   30.12        
Jan 16 01:55 SSE 5 1.25 Fog/Mist VV007 36 36     100% 32   30.12        
Jan 16 01:35 SSE 5 2.5 Fog/Mist SCT006 36 36     100% 32   30.13        
Jan 16 01:15 S 5 0.5 Fog VV005 36 34     93% 32   30.13        
Jan 16 00:55 S 6 2 Fog/Mist CLR 36 34     93% 31   30.13        
Jan 16 00:35 SSW 6 3 Fog/Mist CLR 36 36     100% 31   30.14        
Jan 16 00:15 SSW 6 4 Fog/Mist CLR 37 36     93% 33   30.15        
Jan 15 23:55 SSW 6 5 Fog/Mist CLR 37 36     93% 33   30.15        
Jan 15 23:35 SSW 7 5 Fog/Mist CLR 37 36     93% 32   30.15        
Jan 15 23:15 SSW 9 5 Fog/Mist CLR 37 37     100% 31   30.15        
Jan 15 22:55 SSW 9 4 Fog/Mist CLR 37 36     93% 31   30.15        
Jan 15 22:35 S 7 4 Fog/Mist CLR 36 36     100% 30   30.14        
Jan 15 22:15 S 7 2 Fog/Mist CLR 36 34     93% 30   30.13        
Jan 15 21:55 S 7 1.75 Fog/Mist VV007 37 36     93% 32   30.13        
Jan 15 21:35 S 6 3 Fog/Mist CLR 37 36     93% 33   30.13        
Jan 15 21:15 S 6 4 Fog/Mist CLR 37 36     93% 33   30.13        
Jan 15 20:55 SSE 5 4 Fog/Mist CLR 37 36     93% 34   30.13        
Jan 15 20:35 S 5 3 Fog/Mist CLR 37 36     93% 34   30.13        
Jan 15 20:15 S 3 5 Fog/Mist CLR 39 37     93% 37   30.13        
Jan 15 19:55 SSW 3 5 Fog/Mist CLR 39 37     93% 37   30.13        
Jan 15 19:35 SSW 6 7 Clear CLR 41 37     87% 37   30.12        
Jan 15 19:15 S 5 7 Clear CLR 41 37     87% 38   30.12        
Jan 15 18:55 SSW 5 7 Clear CLR 39 37     93% 36   30.13        
Jan 15 18:35 SSW 5 10 Clear CLR 41 37     87% 38   30.12        
Jan 15 18:15 SSW 6 10 Clear CLR 43 37     81% 39   30.12        
Jan 15 17:55 S 3 10 Clear CLR 43 37     81% 41   30.12        
Jan 15 17:35 SSW 7 10 Clear CLR 43 37     81% 39   30.11        
Jan 15 17:15 SSW 6 10 Clear CLR 45 39     81% 41   30.11        
Jan 15 16:55 SSW 6 10 Clear CLR 46 41     81% 43   30.11        
Jan 15 16:35 SSW 8 10 Clear CLR 48 41     76% 45   30.11        
Jan 15 16:15 SW 8 10 Clear CLR 48 41     76% 45   30.12        
Jan 15 15:55 WNW 8 10 Clear CLR 50 41     71%     30.12        
Jan 15 15:35 SSW 9 10 Clear CLR 50 41     71%     30.12        
Jan 15 15:15 SSW 11 10 Clear CLR 50 41     71%     30.12        
Jan 15 14:55 W 8 10 Clear CLR 50 41     71%     30.12        
Jan 15 14:35 NW 8 10 Clear CLR 46 39     76% 42   30.12        
Jan 15 14:15 SW 7 10 Clear CLR 46 41     81% 43   30.12        
Jan 15 13:55 SW 9 10 Clear CLR 46 39     76% 42   30.13        
Jan 15 13:35 SW 8 10 Partly Cloudy SCT011 45 39     81% 40   30.13        
Jan 15 13:15 WSW 7 7 Mostly Cloudy BKN011 45 37     76% 41   30.14        
Jan 15 12:55 WSW 6 7 Cloudy OVC009 43 37     81% 39   30.15        
Jan 15 12:35 SW 7 5 Fog/Mist OVC007 41 36     81% 36   30.16        
Jan 15 12:15 SW 9 5 Fog/Mist OVC007 37 36     93% 31   30.18        
Jan 15 11:55 SW 8 5 Fog/Mist OVC007 37 34     87% 31   30.2        
Jan 15 11:35 SW 10 5 Fog/Mist OVC007 37 34     87% 30   30.21        
Jan 15 11:15 SSW 10 5 Fog/Mist OVC007 37 34     87% 30   30.22        
Jan 15 10:55 SW 8 5 Fog/Mist OVC005 36 34     93% 29   30.23        
Jan 15 10:35 SSW 8 4 Clear   36 32     87% 29   30.23        
Jan 15 10:15 SW 8 4 Clear   36 32     87% 29   30.23        
Jan 15 09:55 SSW 8 4 Clear   34 32     93% 27   30.23        
Jan 15 09:35 SSW 9 4 Fog/Mist SCT003 34 32     93% 26   30.22        
Jan 15 09:15 SSW 8 4 Fog/Mist SCT003 32 32     100% 25   30.22        
Jan 15 08:55 S 8 4 Fog/Mist SCT003 32 30     93% 25   30.21        
Jan 15 08:35 S 7 4 Fog/Mist SCT003 30 28     93% 23   30.21        
Jan 15 08:15 S 7 4 Fog/Mist CLR 28 27     93% 21   30.21        
Jan 15 07:55 SSE 7 4 Fog/Mist CLR 28 27     93% 21   30.21        
Jan 15 07:35 SSE 6 4 Fog/Mist CLR 28 27     93% 22   30.21        
Jan 15 07:15 SSE 6 5 Fog/Mist CLR 28 27     93% 22   30.2        
Jan 15 06:55 S 7 5 Fog/Mist CLR 28 27     93% 21   30.21        
Jan 15 06:35 SSE 6 5 Fog/Mist CLR 28 27     93% 22   30.2        
Jan 15 06:15 S 7 5 Fog/Mist CLR 30 28     93% 23   30.2        
Jan 15 05:55 S 6 5 Fog/Mist CLR 30 28     93% 24   30.2        
Jan 15 05:35 S 8 7 Clear CLR 30 28     93% 23   30.2        
Jan 15 05:15 S 7 7 Clear CLR 30 28     93% 23   30.2        
Jan 15 04:55 SSE 7 7 Clear CLR 30 28     93% 23   30.21        
Jan 15 04:35 SSE 7 7 Clear CLR 30 28     93% 23   30.21        
Jan 15 04:15 SSE 7 7 Clear CLR 30 28     93% 23   30.22        
Jan 15 03:55 SSE 9 7 Clear CLR 30 28     93% 22   30.22        
Jan 15 03:35 SSE 8 7 Clear CLR 30 28     93% 23   30.22        
Jan 15 03:15 SSE 7 7 Clear CLR 30 28     93% 23   30.23        
Jan 15 02:55 SSE 7 7 Clear CLR 30 28     93% 23   30.23        
Jan 15 02:35 SSE 8 7 Clear CLR 30 28     93% 23   30.23        
Jan 15 02:15 SSE 9 7 Clear CLR 30 28     93% 22   30.23        
Jan 15 01:55 SSE 7 7 Clear CLR 30 28     93% 23   30.23        
Jan 15 01:35 SSE 5 7 Clear CLR 30 28     93% 25   30.24        
Jan 15 01:15 SSE 6 7 Clear CLR 30 28     93% 24   30.25        
Jan 15 00:55 SSE 5 7 Clear CLR 30 28     93% 25   30.26        
Jan 15 00:35 SSE 6 7 Clear CLR 30 28     93% 24   30.27        
Jan 15 00:15 S 6 7 Clear CLR 30 28     93% 24   30.28        
Jan 14 23:55 S 5 7 Clear CLR 32 28     86% 27   30.28        
Jan 14 23:35 S 7 7 Clear CLR 32 30     93% 26   30.28        
Jan 14 23:15 S 8 5 Fog/Mist CLR 32 30     93% 25   30.29        
Jan 14 22:55 S 9 5 Fog/Mist CLR 32 30     93% 24   30.29        
Jan 14 22:35 S 8 5 Fog/Mist CLR 32 30     93% 25   30.29        
Jan 14 22:15 S 7 4 Fog/Mist CLR 32 32     100% 26   30.28        
Jan 14 21:55 SSE 8 4 Fog/Mist CLR 32 32     100% 25   30.28        
Jan 14 21:35 SSE 6 3 Fog/Mist SCT002 32 32     100% 26   30.28        
Jan 14 21:15 SSE 7 1.75 Fog/Mist OVC002 34 32     93% 28   30.28        
Jan 14 20:55 SSE 7 2 Fog/Mist OVC002 34 32     93% 28   30.28        
Jan 14 20:35 S 7 3 Fog/Mist OVC004 34 32     93% 28   30.29        
Jan 14 20:15 S 7 3 Fog/Mist OVC004 34 32     93% 28   30.29        
Jan 14 19:55 S 6 4 Fog/Mist OVC004 34 32     93% 29   30.3        
Jan 14 19:35 SSW 7 5 Fog/Mist OVC004 34 32     93% 28   30.31        
Jan 14 19:15 S 7 5 Fog/Mist OVC004 34 32     93% 28   30.3        
Jan 14 18:55 S 8 7 Cloudy OVC006 34 32     93% 27   30.3        
Jan 14 18:35 SSW 6 7 Cloudy OVC006 34 32     93% 29   30.3        
Jan 14 18:15 SSW 9 7 Cloudy OVC006 34 32     93% 26   30.3        
Jan 14 17:55 SSW 9 7 Cloudy OVC006 34 32     93% 26   30.29        
Jan 14 17:35 SSW 7 7 Cloudy OVC006 34 32     93% 28   30.29        
Jan 14 17:15 SSW 7 7 Cloudy OVC006 34 32     93% 28   30.29        
Jan 14 16:55 SSW 7 7 Cloudy OVC006 34 32     93% 28   30.29        
Jan 14 16:35 SW 8 7 Cloudy OVC006 34 32     93% 27   30.29        
Jan 14 16:15 SW 7 7 Cloudy OVC006 34 32     93% 28   30.29        
Jan 14 15:55 SSW 9 7 Cloudy OVC006 34 32     93% 26   30.3        
Jan 14 15:35 SSW 9 7 Cloudy OVC006 34 32     93% 26   30.31        
Jan 14 15:15 SW 7 7 Cloudy OVC006 34 32     93% 28   30.31        
Jan 14 14:55 SSW 8 7 Cloudy OVC006 34 32     93% 27   30.31        
Jan 14 14:35 SSW 7 7 Cloudy OVC006 34 32     93% 28   30.31        
Jan 14 14:15 SW 6 7 Cloudy OVC004 34 32     93% 29   30.32        
Jan 14 13:55 SSW 9 7 Cloudy OVC004 32 32     100% 24   30.32        
Jan 14 13:35 SW 7 7 Cloudy OVC004 32 32     100% 26   30.33        
Jan 14 13:15 SW 7 7 Cloudy OVC004 32 32     100% 26   30.34        
Jan 14 12:55 WSW 9 7 Cloudy OVC004 32 32     100% 24   30.35        
Jan 14 12:35 SW 8 7 Cloudy OVC004 32 30     93% 25   30.36        
Jan 14 12:15 SW 7 7 Cloudy OVC004 32 30     93% 26   30.38        
Jan 14 11:55 SW 10 10 Cloudy OVC004 32 30     93% 24   30.39        
Jan 14 11:35 SW 7 10 Cloudy OVC004 32 30     93% 26   30.4        
Jan 14 11:15 WSW 8 7 Cloudy OVC004 32 30     93% 25   30.41        
Jan 14 10:55 SW 8 5 Fog/Mist OVC004 32 30     93% 25   30.41        
Jan 14 10:35 SW 8 5 Fog/Mist OVC004 32 30     93% 25   30.42        
Jan 14 10:15 SW 7 10 Cloudy OVC004 32 30     93% 26   30.42        
Jan 14 09:55 SW 9 7 Cloudy OVC002 30 30     100% 22   30.41        
Jan 14 09:35 SW 8 4 Fog/Mist OVC002 30 30     100% 23   30.41        
Jan 14 09:15 WSW 8 3 Fog/Mist OVC002 30 28     93% 23   30.4        
Jan 14 08:55 SW 6 2.5 Fog/Mist OVC002 30 28     93% 24   30.4        
Jan 14 08:35 WSW 5 3 Fog/Mist OVC002 30 28     93% 25   30.4        
Jan 14 08:15 SW 9 1.75 Fog/Mist OVC002 30 28     93% 22   30.4        
Jan 14 07:55 W 5 1.75 Fog/Mist OVC002 30 28     93% 25   30.4        
Jan 14 07:35 W 8 4 Fog/Mist OVC002 30 28     93% 23   30.4        
Jan 14 07:15 W 8 2.5 Fog/Mist OVC002 30 28     93% 23   30.41        
Jan 14 06:55 W 5 2.5 Fog/Mist OVC002 30 28     93% 25   30.4        
Jan 14 06:35 W 5 4 Fog/Mist OVC002 30 28     93% 25   30.41        
Jan 14 06:15 WSW 6 3 Fog/Mist OVC002 30 28     93% 24   30.4        
Jan 14 05:55 W 7 3 Fog/Mist OVC004 30 28     93% 23   30.4        
Jan 14 05:35 W 3 3 Fog/Mist OVC004 30 28     93% 27   30.4        
Jan 14 05:15 W 6 4 Fog/Mist OVC004 30 28     93% 24   30.4        
Jan 14 04:55 W 7 4 Fog/Mist OVC004 30 28     93% 23   30.4        
Jan 14 04:35 W 3 4 Fog/Mist OVC004 30 28     93% 27   30.4        
Jan 14 04:15 W 6 4 Fog/Mist OVC004 30 28     93% 24   30.42        
Jan 14 03:55 W 5 4 Fog/Mist OVC004 30 28     93% 25   30.42        
Jan 14 03:35 W 7 5 Fog/Mist OVC004 30 28     93% 23   30.42        
Jan 14 03:15 WSW 7 4 Fog/Mist OVC004 30 28     93% 23   30.43        
Jan 14 02:55 SW 7 4 Fog/Mist OVC004 30 28     93% 23   30.43        
Jan 14 02:35 WSW 5 5 Fog/Mist OVC004 30 28     93% 25   30.43        
Jan 14 02:15 W 6 5 Fog/Mist OVC004 30 28     93% 24   30.42        
Jan 14 01:55 WSW 5 5 Fog/Mist OVC004 30 28     93% 25   30.42        
Jan 14 01:35 WSW 3 5 Fog/Mist OVC004 30 28     93% 27   30.42        
Jan 14 01:15 W 5 5 Fog/Mist OVC004 30 28     93% 25   30.42        
Jan 14 00:55 W 3 5 Fog/Mist OVC004 30 28     93% 27   30.43        
Jan 14 00:35 WNW 5 5 Fog/Mist OVC004 30 28     93% 25   30.43        
Jan 14 00:15 WNW 3 7 Cloudy OVC004 30 28     93% 27   30.43        
Jan 13 23:55 Calm 5 Fog/Mist OVC004 30 28     93%     30.45        
Jan 13 23:35 Calm 5 Fog/Mist OVC004 30 28     93%     30.45        
Jan 13 23:15 Calm 5 Fog/Mist OVC004 30 28     93%     30.45        
Jan 13 22:55 NNW 5 5 Fog/Mist OVC004 30 28     93% 25   30.45        
Jan 13 22:35 Calm 7 Cloudy OVC006 30 28     93%     30.45        
Jan 13 22:15 NNW 3 5 Fog/Mist OVC006 32 28     86% 29   30.45        
Jan 13 21:55 Calm 7 Cloudy OVC006 32 28     86%     30.45        
Jan 13 21:35 N 3 7 Cloudy OVC006 32 28     86% 29   30.45        
Jan 13 21:15 NNE 3 7 Cloudy OVC006 32 28     86% 29   30.45        
Jan 13 20:55 N 6 7 Cloudy OVC006 32 28     86% 26   30.45        
Jan 13 20:35 Calm 7 Cloudy OVC006 32 28     86%     30.44        
Jan 13 20:15 NNE 7 7 Cloudy OVC006 32 28     86% 26   30.44        
Jan 13 19:55 NNW 5 7 Cloudy OVC006 32 28     86% 27   30.44        
Jan 13 19:35 NW 5 7 Cloudy OVC008 32 28     86% 27   30.43        
Jan 13 19:15 N 6 7 Cloudy OVC008 32 28     86% 26   30.43        
Jan 13 18:55 NW 6 7 Cloudy OVC008 32 28     86% 26   30.43        
Jan 13 18:35 NNW 5 7 Cloudy OVC008 32 28     86% 27   30.43        
Jan 13 18:15 NNW 6 7 Cloudy OVC008 32 28     86% 26   30.43        
Jan 13 17:55 N 6 7 Cloudy OVC008 32 30     93% 26   30.43        
Jan 13 17:35 N 5 7 Cloudy OVC008 32 28     86% 27   30.43        
Jan 13 17:15 N 7 7 Cloudy OVC008 32 28     86% 26   30.42        
Jan 13 16:55 NNW 6 7 Cloudy OVC008 32 28     86% 26   30.42        
Jan 13 16:35 N 9 5 Fog/Mist OVC008 32 30     93% 24   30.42        
Jan 13 16:15 NNW 7 7 Cloudy OVC008 32 30     93% 26   30.42        
Jan 13 15:55 NNW 8 5 Fog/Mist OVC008 32 30     93% 25   30.41        
Jan 13 15:35 NNW 8 7 Cloudy OVC008 32 30     93% 25   30.41        
Jan 13 15:15 NNW 5 7 Cloudy OVC008 32 28     86% 27   30.41        
Jan 13 14:55 N 7 7 Cloudy OVC008 32 30     93% 26   30.41        
Jan 13 14:35 N 8 7 Clear   32 30     93% 25   30.4        
Jan 13 14:15 N 8 7 Clear   32 30     93% 25   30.41        
Jan 13 13:55 N 7 7 Clear   32 30     93% 26   30.41        
Jan 13 13:35 NNW 8 7 Cloudy OVC006 32 30     93% 25   30.41        
Jan 13 13:15 N 9 7 Cloudy OVC006 32 30     93% 24   30.41        
Jan 13 12:55 NNW 7 5 Fog/Mist OVC006 32 30     93% 26   30.42        
Jan 13 12:35 N 11 7 Cloudy OVC006 32 28     86% 23   30.42        
May 15 06:35 SW 8 10 Clear CLR 64 63     94%     29.98        
Notice The following observation data may not be complete
May 14 17:35 Calm 1.75 Light Rain SCT046 BKN065 OVC120   72      %     29.78        
May 14 09:15 SSW 14 10 Clear CLR 77 68     74%   78 29.91        
May 14 06:15 SSE 9 10 Clear CLR 72 64     78%   72 29.88        
May 14 05:55 SSE 10 10 Clear CLR 72 64     78%   72 29.88        
May 14 02:55   10 Clear CLR 73 64     73%   74 29.89        
May 13 23:35 S 13 10 Clear CLR 75 64     69%   76 29.95        
May 13 14:35   10 Clear CLR 90 68     49%   93 29.87        
May 13 11:35   10 Clear CLR 86 68     55%   89 29.95        
May 13 09:35 SSW 17 10 Clear CLR 79 66     65%   79 29.95        
May 12 22:35 S 16 10 Clear CLR 77 66     69%   78 29.92        
May 12 16:35   10 Partly Cloudy SCT050 88 64     46%   89 29.84        
May 12 14:55 S 17 10 Partly Cloudy SCT048 88 64     46%   89 29.85        
May 12 01:15 SSE 13 10 Clear CLR 72 63     73%   72 29.79        
May 11 19:35 S 14 10 Clear CLR 82 61     48%   83 29.71        
May 11 14:35 SSW 20 10 Partly Cloudy and Windy SCT050 84 61     45%   84 29.71        
May 11 10:35   10 Clear CLR 79 61     54%   79 29.73        
May 11 08:35 SSW 23 10 Clear and Windy CLR 73 61     65%   73 29.74        
Jun 12 06:15 S 13 10 Clear CLR 72 66     83%   72 29.85        
Jun 12 05:15 S 11 10 Clear CLR 72 64     78%   72 29.85        
Jun 12 02:35 S 18 10 Clear CLR 73 64     73%   74 29.84        
Notice The following observation data may not be complete
Jun 11 15:15   10 Clear CLR          %              
Jun 11 14:35   10 Clear CLR 90 66     46%   92 29.79        
Jun 11 12:55 S 25 10 Clear and Windy CLR 88 66     49%   90 29.82        
Notice The following observation data may not be complete
Jun 11 05:35   10 Clear CLR          %              
Jun 11 01:15   10 Clear CLR 75 64     69%   76 29.79        
Jun 10 15:35 S 23 10 Partly Cloudy and Windy SCT036 88 70     55%   93 29.74        
Jun 10 13:55   10 Mostly Cloudy BKN029 86 70     59%   91 29.77        
Jun 10 13:35   10 Mostly Cloudy BKN029 84 70     62%   88 29.78        
Jun 10 08:15   10 Cloudy OVC015 72 64     78%   72 29.82        
Jun 10 03:55 S 13 10 Clear CLR 68 63     83%     29.79        
Jun 10 01:55 S 16 10 Clear CLR 70 63     78%     29.8        
Jun 09 22:55 S 15 10 Clear CLR 73 63     69%   74 29.83        
Notice The following observation data may not be complete
Jun 09 11:35   10 Clear CLR          %              
Jun 09 07:35 S 3 10 Clear CLR 64 59     83%     29.92        
Jun 09 00:15 SSE 3 10 Clear   63 59     88%     29.92        
Jun 08 23:15 SSE 5 10 Clear CLR 64 57     77%     29.93        
Jun 08 19:55 SSE 5 10 Clear CLR 77 55     47%   77 29.91        
Jun 08 19:35 SE 5 10 Clear CLR 79 54     42%   78 29.91        
Jun 08 16:55 SSE 5 10 Clear CLR 81 52     37%   80 29.96        
Jun 08 12:55 SW 3 10 Clear CLR 79 52     39%   78 30.03        
Jun 08 09:15 SSE 5 10 Clear CLR 70 54     56%     30.08        
Notice The following observation data may not be complete
Jun 08 07:55 Calm 10 Clear CLR   55      %     30.08        
Notice The following observation data may not be complete
Jun 08 00:35   10 Clear CLR          %              
Jun 07 21:55 E 3 10 Clear CLR 68 54     60%     30.04        
Jun 07 12:35 NE 3 10 Clear CLR 79 52     39%   78 30.11        
Jun 06 05:35 N 3 10 Clear CLR 66 63     88%     29.96        
Jun 06 03:15 Calm 10 Clear CLR 68 64     88%     29.92        
Jun 05 14:15 NE 9 10 Partly Cloudy SCT050 88 64     46%   89 29.87